Location: Newark
(40.9833°N, 0.0333°W)
Time: 03:14:25
(UTC+00:00)

Transit 2A Rocket - Pass Details

Date: 27 October 2020
Orbit: 588 x 914 km, 66.7° (Epoch: 26 November)

Event Time Altitude Azimuth Distance (km) Brightness Sun altitude
Rises 20:12:27 0° 311° (NW) 3,196 9.0 -36.4°
Reaches altitude 10° 20:16:06 10° 286° (WNW) 2,187 8.1 -37.0°
Maximum altitude 20:18:25 13° 258° (WSW) 1,914 7.6 -37.4°
Enters shadow 20:19:15 13° 247° (WSW) 1,926 7.5 -37.6°
Drops below altitude 10° 20:20:40 10° 229° (SW) 2,085 - -37.9°
Sets 20:24:00 0° 202° (SSW) 2,926 - -38.5°
